GW4358 Weather Reports


time (UTC)temp
C
wind
direction
speed
KPH
gust
KPH
rain 1hr
cm
rain 24hr
cm
rain mn
cm
humidity
%
barometer
mb
20260510174520 -27 302 0.0 0.0 0.00 0.56 0.20 1016.4
20260510173015 -28 211 0.0 0.0 0.03 0.56 0.20 1016.5
20260510171510 -26 211 0.0 1.6 0.03 0.56 0.20 1016.7
20260510170006 -25 70 0.0 1.6 0.03 0.56 0.20 1016.6
20260510164501 -26 328 0.0 0.0 0.03 0.58 0.20 1016.6
20260510163057 -23 328 0.0 1.6 0.03 0.56 0.18 1016.5
20260510161553 -23 261 0.0 0.0 0.03 0.56 0.18 1016.4
20260510160054 -23 257 0.0 0.0 0.03 0.56 0.18 1016.4
20260510154602 -22 23 0.0 0.0 0.03 0.58 0.18 1016.5
20260510153047 -21 57 0.0 0.0 0.00 0.56 0.15 1016.4
20260510151535 -20 59 0.0 0.0 0.03 0.56 0.15 1016.1
20260510150031 -18 9 0.0 0.0 0.03 0.56 0.15 1016.0
20260510144544 -18 9 0.0 3.2 0.03 0.61 0.15 1016.0
20260510143021 -18 13 0.0 3.2 0.03 0.61 0.15 1016.0
20260510141517 -19 261 0.0 3.2 0.00 0.58 0.13 1016.0
20260510140013 -19 261 0.0 4.8 0.03 0.58 0.13 1015.8
20260510134509 -20 261 0.0 3.2 0.03 0.61 0.13 1015.8
20260510133004 -21 261 0.0 3.2 0.03 0.61 0.13 1015.8
20260510131559 -22 261 0.0 1.6 0.03 0.61 0.13 1015.6
20260510130056 -25 262 0.0 0.0 0.00 0.58 0.10 1015.5
20260510124551 -26 262 0.0 0.0 0.00 0.61 0.10 1015.3
20260510123051 -28 262 0.0 3.2 0.00 0.61 0.10 1015.4
20260510121543 -29 248 0.0 6.4 0.00 0.61 0.10 1015.2
20260510120038 -30 246 0.0 4.8 0.00 0.61 0.10 1014.8
20260510114534 -30 248 0.0 0.0 0.03 0.64 0.10 1014.5
20260510113029 -31 246 0.0 0.0 0.03 0.64 0.10 1014.3
20260510111527 -31 247 0.0 0.0 0.03 0.64 0.10 1014.1
20260510110026 -31 246 0.0 0.0 0.03 0.64 0.10 1013.7
20260510104517 -31 248 0.0 0.0 0.00 0.64 0.08 1013.5
20260510103011 -31 247 0.0 0.0 0.00 0.64 0.08 1013.2
20260510101507 -31 247 0.0 0.0 0.00 0.64 0.08 1013.0
20260510100003 -31 246 0.0 0.0 0.03 0.64 0.08 1012.7
20260510094614 -32 246 0.0 0.0 0.03 0.66 0.08 1012.5
20260510093054 -32 247 0.0 0.0 0.03 0.66 0.08 1012.4
20260510091549 -32 247 0.0 0.0 0.03 0.66 0.08 1012.3
20260510090046 -32 247 0.0 0.0 0.00 0.64 0.05 1012.3
20260510084556 -32 249 0.0 0.0 0.00 0.66 0.05 1012.1
20260510083039 -32 256 0.0 0.0 0.00 0.66 0.05 1012.2
20260510081536 -33 256 0.0 0.0 0.03 0.66 0.05 1012.0
20260510080027 -33 256 0.0 0.0 0.03 0.66 0.05 1011.9
20260510074524 -33 257 0.0 0.0 0.03 0.66 0.05 1011.7
20260510073022 -33 258 0.0 0.0 0.03 0.66 0.05 1011.4
20260510071514 -33 247 0.0 0.0 0.00 0.64 0.03 1011.5
20260510070010 -34 236 0.0 6.4 0.00 0.64 0.03 1011.5
20260510064505 -35 259 0.0 3.2 0.03 0.69 0.03 1011.6
20260510063001 -35 250 0.0 1.6 0.03 0.69 0.03 1011.6
20260510061605 -35 220 0.0 1.6 0.03 0.69 0.03 1011.4
20260510060054 -35 258 0.0 0.0 0.03 0.69 0.03 1011.4
20260510054549 -35 224 0.0 0.0 0.00 0.66 0.00 1011.4
20260510053053 -36 223 0.0 0.0 0.00 0.66 0.00 1011.3
20260510051543 -36 216 0.0 0.0 0.00 0.66 0.00 1011.3
20260510050035 -36 208 0.0 0.0 0.03 0.66 0.00 1011.3
20260510044531 -36 258 0.0 0.0 0.03 0.71 0.66 1011.2
20260510043027 -37 231 0.0 0.0 0.03 0.71 0.66 1011.4
20260510041532 -37 230 0.0 0.0 0.03 0.71 0.66 1011.5
20260510040017 -38 214 0.0 0.0 0.00 0.69 0.64 1011.5
20260510034513 -38 221 0.0 0.0 0.03 0.71 0.64 1011.7
20260510033009 -38 240 0.0 0.0 0.03 0.71 0.64 1011.6
20260510031505 -38 227 0.0 0.0 0.03 0.71 0.64 1011.5
20260510030103 -39 231 0.0 0.0 0.03 0.71 0.64 1011.2
20260510024556 -40 246 0.0 0.0 0.00 0.71 0.61 1011.0
20260510023052 -40 221 0.0 0.0 0.00 0.71 0.61 1010.7
20260510021545 -41 221 0.0 0.0 0.03 0.71 0.61 1010.5
20260510020042 -41 222 0.0 0.0 0.03 0.71 0.61 1010.1
20260510014537 -41 215 0.0 0.0 0.03 0.71 0.61 1009.8
20260510013033 -42 257 0.0 3.2 0.03 0.71 0.61 1009.3
20260510011529 -42 256 0.0 6.4 0.03 0.71 0.58 1009.0
20260510010024 -42 257 0.0 4.8 0.03 0.71 0.58 1008.7
20260510004521 -43 256 0.0 0.0 0.03 0.71 0.58 1008.4
20260510003019 -43 257 0.0 1.6 0.03 0.71 0.58 1008.3
20260510001511 -43 258 0.0 3.2 0.03 0.71 0.56 1008.1
20260510000006 -17 257 0.0 3.2 0.03 0.71 0.56 1008.0
20260509234502 -13 257 0.0 4.8 0.03 0.76 0.56 1008.0
20260509233112 -13 257 0.0 0.0 0.03 0.76 0.56 1007.8
20260509231559 -12 257 0.0 4.8 0.03 0.71 0.53 1008.0
20260509230049 -12 258 0.0 0.0 0.03 0.71 0.53 1008.0
20260509224546 -11 257 0.0 0.0 0.03 0.76 0.53 1007.7
20260509223042 -17 258 0.0 0.0 0.05 0.76 0.53 1007.6
20260509221536 -11 258 0.0 0.0 0.03 0.71 0.51 1007.7
20260509220037 -11 209 0.0 0.0 0.05 0.71 0.51 1007.6
20260509214529 -11 247 0.0 1.6 0.05 0.76 0.51 1007.6
20260509213023 -12 225 0.0 3.2 0.03 0.71 0.48 1007.5
20260509211518 -11 246 0.0 1.6 0.05 0.71 0.48 1007.5
20260509210014 -11 225 0.0 0.0 0.03 0.71 0.46 1007.6
20260509204509 -10 217 0.0 0.0 0.05 0.76 0.46 1007.6
20260509203008 -10 238 0.0 0.0 0.05 0.76 0.46 1007.8
20260509201600 -8 241 0.0 0.0 0.03 0.71 0.43 1007.9
20260509200108 -9 234 0.0 0.0 0.05 0.71 0.43 1008.1
20260509194552 -10 63 0.0 0.0 0.03 0.76 0.41 1008.0
20260509193048 -10 293 0.0 0.0 0.05 0.76 0.41 1008.0
20260509191544 -9 315 0.0 0.0 0.05 0.76 0.41 1007.9
20260509190047 -8 311 0.0 0.0 0.03 0.71 0.38 1008.2
20260509184539 -8 244 0.0 9.7 0.05 0.79 0.38 1008.3
20260509183031 -8 257 0.0 11.3 0.03 0.76 0.36 1008.4
20260509181525 -8 217 0.0 8.0 0.05 0.76 0.36 1008.4
20260509180022 -8 281 0.0 0.0 0.05 0.76 0.36 1008.6